| time (UTC) | temp F | wind direction | speed MPH | gust MPH | rain 1hr in | rain 24hr in | rain mn in | humidity % | barometer mb |
| 20260507090005 | 55 | 248 | 3.0 | 8.0 | 0.00 | 0.00 | 0.00 | 80 | 1025.9 |
| 20260507084505 | 55 | 272 | 4.0 | 7.0 | 0.00 | 0.00 | 0.00 | 80 | 1026.1 |
| 20260507083005 | 55 | 280 | 3.0 | 8.0 | 0.00 | 0.00 | 0.00 | 80 | 1026.1 |
| 20260507081506 | 55 | 282 | 5.0 | 10.0 | 0.00 | 0.00 | 0.00 | 79 | 1026.1 |
| 20260507080004 | 55 | 280 | 5.0 | 8.0 | 0.00 | 0.00 | 0.00 | 79 | 1026.0 |
| 20260507074505 | 55 | 253 | 6.0 | 10.0 | 0.00 | 0.00 | 0.00 | 79 | 1026.0 |
| 20260507073005 | 56 | 240 | 2.0 | 12.0 | 0.00 | 0.00 | 0.00 | 79 | 1025.9 |
| 20260507071505 | 56 | 268 | 5.0 | 12.0 | 0.00 | 0.00 | 0.00 | 78 | 1025.9 |
| 20260507070009 | 56 | 241 | 5.0 | 13.0 | 0.00 | 0.00 | 0.00 | 78 | 1025.9 |
| 20260507064505 | 56 | 282 | 3.0 | 12.0 | 0.00 | 0.00 | 0.00 | 79 | 1025.9 |
| 20260507063004 | 56 | 250 | 6.0 | 13.0 | 0.00 | 0.00 | 0.00 | 78 | 1025.9 |
| 20260507061505 | 57 | 222 | 3.0 | 9.0 | 0.00 | 0.00 | 0.00 | 78 | 1025.8 |
| 20260507060005 | 57 | 248 | 5.0 | 12.0 | 0.00 | 0.00 | 0.00 | 78 | 1025.7 |
| 20260507054505 | 57 | 255 | 3.0 | 14.0 | 0.00 | 0.00 | 0.00 | 78 | 1025.7 |
| 20260507053005 | 57 | 242 | 5.0 | 14.0 | 0.00 | 0.00 | 0.00 | 78 | 1025.7 |
| 20260507051505 | 58 | 265 | 2.0 | 12.0 | 0.00 | 0.00 | 0.00 | 79 | 1025.6 |
| 20260507050006 | 58 | 268 | 7.0 | 14.0 | 0.00 | 0.00 | 0.00 | 78 | 1025.7 |
| 20260507043005 | 59 | 264 | 6.0 | 12.0 | 0.00 | 0.00 | 0.00 | 79 | 1025.4 |
| 20260507041505 | 59 | 267 | 6.0 | 13.0 | 0.00 | 0.00 | 0.00 | 79 | 1025.4 |
| 20260507034504 | 60 | 263 | 7.0 | 13.0 | 0.00 | 0.00 | 0.00 | 79 | 1024.7 |
| 20260507033005 | 61 | 261 | 2.0 | 12.0 | 0.00 | 0.00 | 0.00 | 78 | 1024.6 |
| 20260507031504 | 61 | 228 | 4.0 | 12.0 | 0.00 | 0.00 | 0.00 | 79 | 1024.4 |
| 20260507030004 | 61 | 252 | 3.0 | 9.0 | 0.00 | 0.00 | 0.00 | 78 | 1024.2 |
| 20260507024505 | 62 | 262 | 3.0 | 8.0 | 0.00 | 0.00 | 0.00 | 77 | 1024.1 |
| 20260507023005 | 63 | 261 | 0.0 | 1.0 | 0.00 | 0.00 | 0.00 | 76 | 1023.9 |
| 20260507021504 | 64 | 246 | 2.0 | 8.0 | 0.00 | 0.00 | 0.00 | 74 | 1024.0 |
| 20260507020004 | 65 | 263 | 3.0 | 9.0 | 0.00 | 0.00 | 0.00 | 73 | 1024.1 |
| 20260507014505 | 65 | 246 | 0.0 | 6.0 | 0.00 | 0.00 | 0.00 | 73 | 1024.2 |
| 20260507013004 | 65 | 261 | 0.0 | 1.0 | 0.00 | 0.00 | 0.00 | 72 | 1024.2 |
| 20260507010004 | 66 | 267 | 0.0 | 0.0 | 0.00 | 0.00 | 0.00 | 71 | 1024.4 |
| 20260507004504 | 65 | 267 | 1.0 | 6.0 | 0.00 | 0.00 | 0.00 | 69 | 1024.4 |
| 20260507003005 | 66 | 236 | 2.0 | 5.0 | 0.00 | 0.00 | 0.00 | 70 | 1024.4 |
| 20260507001504 | 66 | 248 | 1.0 | 5.0 | 0.00 | 0.00 | 0.00 | 70 | 1024.3 |
| 20260507000004 | 66 | 261 | 1.0 | 3.0 | 0.00 | 0.00 | 0.00 | 70 | 1024.4 |
| 20260506234505 | 66 | 265 | 0.0 | 3.0 | 0.00 | 0.00 | 0.00 | 68 | 1024.4 |
| 20260506233004 | 66 | 273 | 1.0 | 3.0 | 0.00 | 0.00 | 0.00 | 68 | 1024.5 |
| 20260506231505 | 66 | 244 | 0.0 | 0.0 | 0.00 | 0.00 | 0.00 | 70 | 1024.7 |
| 20260506230005 | 66 | 247 | 0.0 | 5.0 | 0.00 | 0.00 | 0.00 | 68 | 1024.8 |
| 20260506224504 | 65 | 232 | 2.0 | 8.0 | 0.00 | 0.00 | 0.00 | 69 | 1025.0 |
| 20260506223004 | 66 | 245 | 2.0 | 7.0 | 0.00 | 0.00 | 0.00 | 70 | 1025.0 |
| 20260506220005 | 67 | 271 | 4.0 | 10.0 | 0.00 | 0.00 | 0.00 | 68 | 1025.0 |
| 20260506213004 | 67 | 239 | 0.0 | 6.0 | 0.00 | 0.00 | 0.00 | 70 | 1025.2 |
| 20260506211504 | 66 | 145 | 1.0 | 8.0 | 0.00 | 0.00 | 0.00 | 69 | 1025.3 |
| 20260506210005 | 67 | 182 | 0.0 | 5.0 | 0.00 | 0.00 | 0.00 | 68 | 1025.3 |
| 20260506204504 | 67 | 255 | 0.0 | 7.0 | 0.00 | 0.00 | 0.00 | 70 | 1025.2 |
| 20260506203005 | 68 | 127 | 0.0 | 2.0 | 0.00 | 0.00 | 0.00 | 70 | 1025.4 |
| 20260506200005 | 65 | 203 | 0.0 | 10.0 | 0.00 | 0.00 | 0.00 | 72 | 1025.5 |
| 20260506194505 | 66 | 190 | 0.0 | 3.0 | 0.00 | 0.00 | 0.00 | 72 | 1025.6 |
| 20260506193004 | 64 | 256 | 0.0 | 8.0 | 0.00 | 0.00 | 0.00 | 78 | 1025.6 |
| 20260506191505 | 63 | 248 | 0.0 | 0.0 | 0.00 | 0.00 | 0.00 | 77 | 1025.5 |
| 20260506190005 | 63 | 226 | 0.0 | 0.0 | 0.00 | 0.00 | 0.00 | 78 | 1025.6 |
| 20260506184504 | 62 | 242 | 0.0 | 0.0 | 0.00 | 0.00 | 0.00 | 80 | 1025.6 |
| 20260506183005 | 62 | 258 | 2.0 | 8.0 | 0.00 | 0.00 | 0.00 | 79 | 1025.5 |
| 20260506180005 | 60 | 252 | 0.0 | 8.0 | 0.00 | 0.00 | 0.00 | 83 | 1025.4 |
| 20260506174504 | 59 | 269 | 1.0 | 9.0 | 0.00 | 0.00 | 0.00 | 83 | 1025.4 |
| 20260506171504 | 60 | 228 | 0.0 | 6.0 | 0.00 | 0.00 | 0.00 | 82 | 1025.4 |
| 20260506170005 | 60 | 272 | 1.0 | 7.0 | 0.00 | 0.00 | 0.00 | 82 | 1025.2 |
| 20260506164504 | 60 | 219 | 2.0 | 7.0 | 0.00 | 0.00 | 0.00 | 82 | 1025.2 |
| 20260506163004 | 60 | 237 | 3.0 | 12.0 | 0.00 | 0.00 | 0.00 | 82 | 1025.0 |
| 20260506161504 | 60 | 236 | 2.0 | 6.0 | 0.00 | 0.00 | 0.00 | 81 | 1024.8 |
| 20260506160004 | 57 | 290 | 0.0 | 3.0 | 0.00 | 0.00 | 0.00 | 87 | 1024.9 |
| 20260506154504 | 57 | 232 | 0.0 | 6.0 | 0.00 | 0.00 | 0.00 | 87 | 1025.3 |
| 20260506153004 | 57 | 245 | 1.0 | 9.0 | 0.00 | 0.00 | 0.00 | 86 | 1025.4 |
| 20260506151504 | 57 | 239 | 2.0 | 6.0 | 0.00 | 0.00 | 0.00 | 85 | 1025.3 |
| 20260506150005 | 57 | 241 | 0.0 | 2.0 | 0.00 | 0.00 | 0.00 | 86 | 1025.1 |
| 20260506144504 | 57 | 283 | 0.0 | 3.0 | 0.00 | 0.00 | 0.00 | 85 | 1024.7 |
| 20260506143004 | 57 | 333 | 0.0 | 2.0 | 0.00 | 0.00 | 0.00 | 85 | 1024.5 |
| 20260506141504 | 57 | 259 | 1.0 | 6.0 | 0.00 | 0.00 | 0.00 | 85 | 1024.5 |
| 20260506133004 | 57 | 273 | 0.0 | 0.0 | 0.00 | 0.00 | 0.00 | 89 | 1024.1 |
| 20260506131504 | 57 | 273 | 0.0 | 0.0 | 0.00 | 0.00 | 0.00 | 89 | 1024.0 |
| 20260506130005 | 57 | 273 | 0.0 | 0.0 | 0.00 | 0.00 | 0.00 | 88 | 1024.1 |
| 20260506124505 | 57 | 253 | 1.0 | 7.0 | 0.00 | 0.00 | 0.00 | 88 | 1024.1 |
| 20260506123005 | 57 | 265 | 2.0 | 5.0 | 0.00 | 0.00 | 0.00 | 88 | 1024.0 |
| 20260506121504 | 57 | 272 | 0.0 | 3.0 | 0.00 | 0.00 | 0.00 | 88 | 1023.9 |
| 20260506120005 | 57 | 275 | 1.0 | 7.0 | 0.00 | 0.00 | 0.00 | 87 | 1023.7 |
| 20260506114504 | 57 | 302 | 1.0 | 9.0 | 0.00 | 0.00 | 0.00 | 87 | 1023.5 |
| 20260506113004 | 57 | 242 | 1.0 | 6.0 | 0.00 | 0.00 | 0.00 | 86 | 1023.3 |
| 20260506111505 | 58 | 274 | 3.0 | 8.0 | 0.00 | 0.00 | 0.00 | 86 | 1023.2 |
| 20260506110005 | 58 | 267 | 3.0 | 9.0 | 0.00 | 0.00 | 0.00 | 86 | 1023.0 |
| 20260506104506 | 58 | 255 | 1.0 | 8.0 | 0.00 | 0.00 | 0.00 | 87 | 1022.8 |
| 20260506100004 | 58 | 252 | 0.0 | 3.0 | 0.00 | 0.00 | 0.00 | 87 | 1022.4 |
| 20260506094504 | 59 | 252 | 0.0 | 0.0 | 0.00 | 0.00 | 0.00 | 87 | 1022.2 |
| 20260506093004 | 59 | 252 | 0.0 | 3.0 | 0.00 | 0.00 | 0.00 | 86 | 1022.2 |
| 20260506091504 | 59 | 250 | 2.0 | 7.0 | 0.00 | 0.00 | 0.00 | 86 | 1022.1 |